| time (UTC) | temp F | wind direction | speed MPH | gust MPH | rain 1hr in | rain 24hr in | rain mn in | humidity % | barometer mb |
| 20260510064516 | 62 | 0.0 | 1.0 | 0.00 | 0.00 | 0.00 | 84 | 1011.4 | |
| 20260510063016 | 62 | 0.0 | 1.0 | 0.00 | 0.00 | 0.00 | 84 | 1011.3 | |
| 20260510061536 | 62 | 0.0 | 1.0 | 0.00 | 0.00 | 0.00 | 84 | 1011.3 | |
| 20260510060016 | 62 | 0.0 | 1.0 | 0.00 | 0.00 | 0.00 | 84 | 1011.3 | |
| 20260510054516 | 62 | 0.0 | 2.0 | 0.00 | 0.00 | 0.00 | 84 | 1011.3 | |
| 20260510053016 | 62 | 0.0 | 1.0 | 0.00 | 0.00 | 0.00 | 84 | 1011.3 | |
| 20260510051516 | 62 | 0.0 | 1.0 | 0.00 | 0.00 | 0.00 | 84 | 1011.3 | |
| 20260510050016 | 61 | 0.0 | 1.0 | 0.00 | 0.00 | 0.00 | 85 | 1011.3 | |
| 20260510044536 | 61 | 0.0 | 0.0 | 0.00 | 0.00 | 0.00 | 85 | 1011.3 | |
| 20260510043016 | 61 | 0.0 | 0.0 | 0.00 | 0.00 | 0.00 | 83 | 1011.4 | |
| 20260510041516 | 61 | 0.0 | 0.0 | 0.00 | 0.00 | 0.00 | 83 | 1011.3 | |
| 20260510040016 | 61 | 0.0 | 0.0 | 0.00 | 0.00 | 0.00 | 83 | 1011.3 | |
| 20260510034517 | 61 | 0.0 | 0.0 | 0.00 | 0.00 | 0.00 | 82 | 1011.2 | |
| 20260510033016 | 61 | 0.0 | 0.0 | 0.00 | 0.00 | 0.00 | 81 | 1011.2 | |
| 20260510031516 | 61 | 0.0 | 0.0 | 0.00 | 0.00 | 0.00 | 79 | 1011.0 | |
| 20260510030016 | 61 | 0.0 | 0.0 | 0.00 | 0.00 | 0.00 | 77 | 1010.9 | |
| 20260510024516 | 61 | 0.0 | 0.0 | 0.00 | 0.00 | 0.00 | 76 | 1010.8 | |
| 20260510023016 | 62 | 0.0 | 0.0 | 0.00 | 0.00 | 0.00 | 74 | 1010.7 | |
| 20260510021516 | 63 | 0.0 | 0.0 | 0.00 | 0.00 | 0.00 | 74 | 1010.5 | |
| 20260510020036 | 63 | 0.0 | 0.0 | 0.00 | 0.00 | 0.00 | 72 | 1010.2 | |
| 20260510014536 | 64 | 0.0 | 0.0 | 0.00 | 0.00 | 0.00 | 72 | 1010.0 | |
| 20260510013016 | 65 | 0.0 | 0.0 | 0.00 | 0.00 | 0.00 | 70 | 1009.9 | |
| 20260510011536 | 66 | 0.0 | 0.0 | 0.00 | 0.00 | 0.00 | 68 | 1009.7 | |
| 20260510010036 | 67 | 0.0 | 0.0 | 0.00 | 0.00 | 0.00 | 66 | 1009.7 | |
| 20260510004516 | 68 | 0.0 | 0.0 | 0.00 | 0.00 | 0.00 | 63 | 1009.4 | |
| 20260510003016 | 69 | 0.0 | 0.0 | 0.00 | 0.00 | 0.00 | 61 | 1009.2 | |
| 20260510001516 | 70 | 0.0 | 1.0 | 0.00 | 0.00 | 0.00 | 59 | 1009.2 | |
| 20260510000016 | 72 | 0.0 | 1.0 | 0.00 | 0.00 | 0.00 | 56 | 1008.9 | |
| 20260509234516 | 73 | 0.0 | 1.0 | 0.00 | 0.00 | 0.00 | 54 | 1008.9 | |
| 20260509233016 | 74 | 0.0 | 1.0 | 0.00 | 0.00 | 0.00 | 52 | 1008.9 | |
| 20260509231516 | 75 | 0.0 | 2.0 | 0.00 | 0.00 | 0.00 | 52 | 1009.0 | |
| 20260509230016 | 76 | 0.0 | 2.0 | 0.00 | 0.00 | 0.00 | 51 | 1008.9 | |
| 20260509224516 | 76 | 248 | 1.0 | 2.0 | 0.00 | 0.00 | 0.00 | 51 | 1008.8 |
| 20260509223016 | 77 | 180 | 1.0 | 4.0 | 0.00 | 0.00 | 0.00 | 51 | 1008.8 |
| 20260509221556 | 76 | 158 | 1.0 | 7.0 | 0.00 | 0.00 | 0.00 | 55 | 1008.9 |
| 20260509220016 | 75 | 180 | 1.0 | 4.0 | 0.00 | 0.00 | 0.00 | 53 | 1008.8 |
| 20260509214516 | 75 | 0.0 | 2.0 | 0.00 | 0.00 | 0.00 | 54 | 1008.7 | |
| 20260509213036 | 75 | 158 | 1.0 | 4.0 | 0.00 | 0.00 | 0.00 | 51 | 1008.7 |
| 20260509211516 | 76 | 203 | 1.0 | 4.0 | 0.00 | 0.00 | 0.00 | 51 | 1008.7 |
| 20260509210016 | 76 | 0 | 1.0 | 2.0 | 0.00 | 0.00 | 0.00 | 50 | 1008.6 |
| 20260509204516 | 76 | 315 | 1.0 | 3.0 | 0.00 | 0.00 | 0.00 | 48 | 1008.5 |
| 20260509203016 | 76 | 248 | 1.0 | 5.0 | 0.00 | 0.00 | 0.00 | 49 | 1008.3 |
| 20260509201516 | 76 | 293 | 1.0 | 7.0 | 0.00 | 0.00 | 0.00 | 49 | 1008.5 |
| 20260509200016 | 76 | 225 | 2.0 | 9.0 | 0.00 | 0.00 | 0.00 | 49 | 1008.7 |
| 20260509194516 | 76 | 315 | 1.0 | 5.0 | 0.00 | 0.00 | 0.00 | 47 | 1008.8 |
| 20260509193016 | 76 | 225 | 1.0 | 7.0 | 0.00 | 0.00 | 0.00 | 47 | 1008.9 |
| 20260509191516 | 75 | 315 | 1.0 | 4.0 | 0.00 | 0.00 | 0.00 | 50 | 1009.3 |
| 20260509190016 | 75 | 293 | 1.0 | 4.0 | 0.00 | 0.00 | 0.00 | 53 | 1009.6 |
| 20260509184516 | 75 | 225 | 1.0 | 8.0 | 0.00 | 0.00 | 0.00 | 51 | 1009.8 |
| 20260509183015 | 75 | 248 | 2.0 | 5.0 | 0.00 | 0.00 | 0.00 | 51 | 1010.0 |
| 20260509181516 | 75 | 180 | 2.0 | 6.0 | 0.00 | 0.00 | 0.00 | 49 | 1010.2 |
| 20260509180015 | 75 | 180 | 2.0 | 6.0 | 0.00 | 0.00 | 0.00 | 51 | 1010.2 |
| 20260509174515 | 74 | 158 | 2.0 | 6.0 | 0.00 | 0.00 | 0.00 | 54 | 1010.2 |
| 20260509173016 | 74 | 135 | 1.0 | 5.0 | 0.00 | 0.00 | 0.00 | 53 | 1010.4 |
| 20260509171515 | 74 | 225 | 2.0 | 5.0 | 0.00 | 0.00 | 0.00 | 52 | 1010.6 |
| 20260509170015 | 74 | 270 | 2.0 | 5.0 | 0.00 | 0.00 | 0.00 | 53 | 1010.9 |
| 20260509164535 | 74 | 203 | 2.0 | 6.0 | 0.00 | 0.00 | 0.00 | 53 | 1011.1 |
| 20260509163035 | 75 | 225 | 2.0 | 7.0 | 0.00 | 0.00 | 0.00 | 51 | 1011.0 |
| 20260509161515 | 74 | 293 | 2.0 | 6.0 | 0.00 | 0.00 | 0.00 | 49 | 1011.2 |
| 20260509160017 | 73 | 225 | 2.0 | 7.0 | 0.00 | 0.00 | 0.00 | 50 | 1011.2 |
| 20260509154517 | 73 | 248 | 2.0 | 7.0 | 0.00 | 0.00 | 0.00 | 50 | 1011.6 |
| 20260509153017 | 72 | 248 | 2.0 | 9.0 | 0.00 | 0.00 | 0.00 | 54 | 1011.7 |
| 20260509151517 | 71 | 315 | 1.0 | 4.0 | 0.00 | 0.00 | 0.00 | 56 | 1011.9 |
| 20260509150017 | 69 | 248 | 1.0 | 9.0 | 0.00 | 0.00 | 0.00 | 63 | 1011.9 |
| 20260509144517 | 67 | 180 | 1.0 | 4.0 | 0.00 | 0.00 | 0.00 | 67 | 1012.3 |
| 20260509143017 | 66 | 90 | 1.0 | 4.0 | 0.00 | 0.00 | 0.00 | 71 | 1012.7 |
| 20260509141517 | 65 | 180 | 1.0 | 7.0 | 0.00 | 0.00 | 0.00 | 69 | 1012.8 |
| 20260509140015 | 64 | 113 | 1.0 | 4.0 | 0.00 | 0.00 | 0.00 | 72 | 1012.7 |
| 20260509134517 | 63 | 180 | 1.0 | 5.0 | 0.00 | 0.00 | 0.00 | 73 | 1012.9 |
| 20260509133017 | 62 | 113 | 1.0 | 3.0 | 0.00 | 0.00 | 0.00 | 78 | 1013.2 |
| 20260509131517 | 60 | 45 | 1.0 | 3.0 | 0.00 | 0.00 | 0.00 | 79 | 1013.3 |
| 20260509130037 | 59 | 0 | 1.0 | 2.0 | 0.00 | 0.00 | 0.00 | 82 | 1013.1 |
| 20260509124517 | 58 | 0.0 | 4.0 | 0.00 | 0.00 | 0.00 | 84 | 1013.1 | |
| 20260509123017 | 56 | 0.0 | 2.0 | 0.00 | 0.00 | 0.00 | 85 | 1013.2 | |
| 20260509121536 | 56 | 0.0 | 3.0 | 0.00 | 0.00 | 0.00 | 85 | 1013.4 | |
| 20260509120017 | 55 | 0.0 | 4.0 | 0.00 | 0.00 | 0.00 | 86 | 1013.3 | |
| 20260509114537 | 54 | 0 | 1.0 | 4.0 | 0.00 | 0.00 | 0.00 | 87 | 1013.1 |
| 20260509113017 | 53 | 0.0 | 2.0 | 0.00 | 0.00 | 0.00 | 87 | 1013.1 | |
| 20260509111517 | 53 | 0 | 1.0 | 6.0 | 0.00 | 0.00 | 0.00 | 87 | 1013.1 |
| 20260509110017 | 52 | 0.0 | 3.0 | 0.00 | 0.00 | 0.00 | 87 | 1013.1 | |
| 20260509104517 | 52 | 0.0 | 2.0 | 0.00 | 0.00 | 0.00 | 86 | 1013.1 | |
| 20260509103036 | 52 | 0.0 | 1.0 | 0.00 | 0.00 | 0.00 | 86 | 1013.0 | |
| 20260509101517 | 52 | 0.0 | 3.0 | 0.00 | 0.00 | 0.00 | 85 | 1013.0 | |
| 20260509100016 | 52 | 0.0 | 2.0 | 0.00 | 0.00 | 0.00 | 84 | 1013.0 | |
| 20260509094516 | 52 | 0.0 | 2.0 | 0.00 | 0.00 | 0.00 | 83 | 1013.0 | |
| 20260509093016 | 52 | 0.0 | 1.0 | 0.00 | 0.00 | 0.00 | 83 | 1013.1 | |
| 20260509091516 | 52 | 0.0 | 0.0 | 0.00 | 0.00 | 0.00 | 82 | 1013.1 | |
| 20260509090016 | 52 | 0.0 | 0.0 | 0.00 | 0.00 | 0.00 | 81 | 1013.0 | |
| 20260509084516 | 52 | 0.0 | 0.0 | 0.00 | 0.00 | 0.00 | 80 | 1013.1 | |
| 20260509083016 | 53 | 0.0 | 0.0 | 0.00 | 0.00 | 0.00 | 79 | 1012.9 | |
| 20260509081516 | 53 | 0.0 | 0.0 | 0.00 | 0.00 | 0.00 | 79 | 1012.9 | |
| 20260509080016 | 53 | 0.0 | 0.0 | 0.00 | 0.00 | 0.00 | 78 | 1012.8 | |
| 20260509074516 | 53 | 0.0 | 0.0 | 0.00 | 0.00 | 0.00 | 77 | 1013.0 | |
| 20260509073016 | 54 | 0.0 | 0.0 | 0.00 | 0.00 | 0.00 | 75 | 1013.2 | |
| 20260509071516 | 54 | 0.0 | 0.0 | 0.00 | 0.00 | 0.00 | 74 | 1013.4 | |
| 20260509070016 | 54 | 0.0 | 0.0 | 0.00 | 0.00 | 0.00 | 73 | 1013.4 |